Regional Weather Roundup
Issued by NWS New Orleans/Baton Rouge, LA

Home | Current Version | Previous Version | Text Only | Print | Product List | Glossary On
Versions: 1 2 3 4 5 6 7 8 9 10 11 12 13 14 15 16 17 18 19 20 21 22 23 24 25 26 27 28 29 30 31 32 33 34 35 36 37 38 39 40 41 42 43 44 45 46 47 48 49 50
518
ASUS44 KLIX 010810
RWRLIX
NEW ORLEANS REGIONAL WEATHER ROUNDUP
NATIONAL WEATHER SERVICE NEW ORLEANS LA
300 AM CDT MON SEP 01 2014

NOTE: "FAIR" INDICATES FEW OR NO CLOUDS BELOW 12,000 FEET WITH NO
      SIGNIFICANT WEATHER AND/OR OBSTRUCTIONS TO VISIBILITY.
      SKY/WX - SKY CONDITION AND SIGNIFICANT WEATHER.
      TMP - AIR TEMPERATURE.     DP    - DEWPOINT TEMPERATURE.
      RH  - RELATIVE HUMIDITY.   PRES  - PRESSURE.
      HI  - HEAT INDEX.          WCI   - WIND CHILL INDEX.

*  THESE STATIONS ARE NOT NWS OR FAA STATIONS AND ARE NOT UNDER
   NWS QUALITY CONTROL.

LAZ038-040-048-061>063-065>067-069-010900-
SOUTHEAST LOUISIANA

CITY           SKY/WX    TMP DP  RH WIND       PRES   REMARKS
N.O. AUDUBON     N/A     82  79  91 MISG        N/A
N.O. INTL ARPT PTCLDY    82  76  81 SE7       30.00F
N.O. LAKEFRONT CLEAR     81  77  88 SE7       30.01F
N.O. DOWNTOWN*   N/A     82  73  74 SE3       30.01F
SLIDELL        CLEAR     80  76  87 SE3       30.01F
BATON ROUGE    CLEAR     76  74  93 E5        30.01F
BOOTHVILLE     PTCLDY    83  78  85 SE7       30.01F
BELLE CHASSE   CLEAR     82  76  81 SE5       29.99F
BOGALUSA*        N/A     75  71  89 CALM      30.04S
GALLIANO*      NOT AVBL
NEW ROADS*       N/A     77  76  96 SE3       30.01S
GONZALES*        N/A     76  76 100 CALM      30.00S
HAMMOND*       CLEAR     73  72  94 CALM      30.03S
HOUMA*         CLEAR     78  73  83 CALM      29.99F
PORT FOURCHON* NOT AVBL

$$

MSZ070-080>082-010900-
SOUTHERN MISSISSIPPI

CITY           SKY/WX    TMP DP  RH WIND       PRES   REMARKS
MCCOMB         CLEAR     75  73  93 CALM      30.03F FOG
GULFPORT       CLEAR     83  75  77 SE12      30.01F
BILOXI         PTCLDY    83  76  79 S10       30.02F
PASCAGOULA     PTCLDY    73  72  96 CALM      30.03S FOG

$$

COASTAL OBSERVATIONS
LAKE AND NEARSHORE STATIONS

STATION/POSITION TIME  TEMP    WIND        PRES    WAVE
                       AIR SEA DIR/SP/G            HT/PER
                 (UTC) (F)     (DEG/KT/KT) (MB)    (FT/S)
PASCAGOULA       0800   85     150/  8/ 11 1016.4
WAVELAND YACHT   0800   84     160/ 13/ 17 1015.7
GRAND ISLE       0800   84 84  140/  9/ 16 1016.3
SOUTHWEST PASS   0800   85 90  130/ 11/ 17 1015.9
NEW CANAL        0800   81 81  130/  2/  5 1016.4
SHELL BEACH      0800   82 80  140/  8/ 11 1015.9

OFFSHORE STATIONS

STATION/POSITION TIME  TEMP    WIND        PRES    WAVE
                       AIR SEA DIR/SP/G            HT/PER
                 (UTC) (F)     (DEG/KT/KT) (MB)    (FT/S)
64 S DAUPHIN ISL 0800   84 85  130/ 14/ 16 1016.4

$$




USA.gov is the U.S. government's official web portal to all federal, state and local government web resources and services.